Location: Unspecified
(48.5670°N, 0.0000°E)
Time: 18:46:06
(UTC+00:00)

Transit 4A - Pass Details

Date: 01 September 2019
Orbit: 865 x 980 km, 66.8° (Epoch: 21 September)

Event Time Altitude Azimuth Distance (km) Brightness Sun altitude
Rises 23:04:36 0° 325° (NW) 3,648 12.0 -32.0°
Reaches altitude 10° 23:07:24 10° 333° (NNW) 2,684 11.1 -32.2°
Maximum altitude 23:13:11 38° 41° (NE) 1,390 9.0 -32.4°
Enters shadow 23:13:52 37° 56° (NE) 1,412 8.9 -32.4°
